User: anonymous   Login
Location: Indian Springs
(36.5700°N, 115.6700°W)
Time: 05:48:34
(UTC-08:00)
Language:

Cosmos 2278 Rocket - Orbit

View from above orbital plane
View from above orbital plane
View from above satellite
View from above satellite

Ground track
Ground track

The orbit data is extracted from the following two-line orbital elements,

1 23088U 94023B   17053.72334756 -.00000332  00000-0 -14765-3 0  9998
2 23088  71.0006 162.2990 0005874 272.6016  87.4434 14.14651526179354
Epoch (UTC): 22 February 2017 17:21:37
Eccentricity: 0.0005874
inclination: 71.0006°
perigee height: 839 km
apogee height: 848 km
right ascension of ascending node: 162.2990°
argument of perigee: 272.6016°
revolutions per day: 14.14651526
mean anomaly at epoch: 87.4434°
orbit number at epoch: 17935

The dashed part of the orbit path shows where the satellite is in the earth's shadow,  

DLR